Date,TemperatureHighF,TemperatureAvgF,TemperatureLowF,DewpointHighF,DewpointAvgF,DewpointLowF,HumidityHigh,HumidityAvg,HumidityLow,PressureMaxIn,PressureMinIn,WindSpeedMaxMPH,WindSpeedAvgMPH,GustSpeedMaxMPH,PrecipitationSumIn
2013-2-1,40.0,36.2,30.0,34.0,32.1,30.0,100,85,76,0.00,40.00,25,14,0,0.03
2013-2-2,43.0,39.2,36.0,35.0,32.9,32.0,88,78,65,0.00,40.00,16,7,0,0.00
2013-2-3,43.0,40.3,36.0,34.0,31.7,30.0,87,71,61,0.00,40.00,13,6,0,0.00
2013-2-4,41.0,38.4,36.0,34.0,31.7,30.0,89,77,66,0.00,40.00,24,12,0,0.08
2013-2-5,40.0,37.0,33.0,32.0,30.8,29.0,88,78,66,0.00,40.00,17,6,0,0.00
2013-2-6,33.0,29.8,27.0,31.0,24.2,20.0,94,79,72,0.00,40.00,20,10,0,0.02
2013-2-7,37.0,32.6,28.0,33.0,28.2,22.0,96,84,66,0.00,40.00,15,7,0,0.06
2013-2-8,38.0,35.3,32.0,33.0,32.2,30.0,98,90,72,0.00,40.00,12,6,0,0.10
2013-2-9,43.0,39.3,35.0,35.0,32.9,30.0,90,78,67,0.00,40.00,28,13,0,0.33
2013-2-10,41.0,36.8,31.0,34.0,30.5,21.0,94,79,66,0.00,40.00,31,10,0,0.13
2013-2-11,33.0,28.1,25.0,21.0,16.0,11.0,68,60,45,0.00,40.00,24,14,0,0.00
2013-2-12,36.0,33.5,31.0,30.0,27.9,19.0,88,80,58,0.00,40.00,19,13,0,0.00
2013-2-13,39.0,33.8,30.0,32.0,30.3,28.0,94,87,66,0.00,40.00,20,10,0,0.05
2013-2-14,41.0,36.2,32.0,33.0,31.0,28.0,94,82,63,0.00,40.00,18,10,0,0.14
2013-2-15,33.0,28.1,24.0,28.0,20.2,13.0,84,72,52,0.00,40.00,27,19,0,0.00
2013-2-16,34.0,27.0,22.0,30.0,16.9,12.0,86,66,54,0.00,40.00,27,12,0,0.00
2013-2-17,34.0,29.0,25.0,30.0,25.0,22.0,97,86,73,0.00,40.00,19,10,0,0.01
2013-2-18,28.0,24.5,20.0,23.0,8.1,-99.9,80,59,44,0.00,40.00,26,15,0,0.00
2013-2-19,30.0,23.6,20.0,28.0,18.0,9.0,96,80,63,0.00,40.00,30,22,0,0.00
2013-2-20,32.0,29.2,27.0,28.0,25.7,23.0,95,87,83,0.00,40.00,31,17,0,0.00
2013-2-21,31.0,29.0,25.0,27.0,24.4,20.0,88,83,77,0.00,40.00,22,8,0,0.00
2013-2-22,29.0,27.6,25.0,20.0,17.3,15.0,81,65,58,0.00,40.00,33,20,0,0.00
2013-2-23,36.0,32.2,29.0,31.0,26.2,19.0,92,79,61,0.00,40.00,24,10,0,0.07
2013-2-24,36.0,34.1,32.0,33.0,30.5,28.0,94,87,79,0.00,40.00,14,6,0,0.20
2013-2-25,39.0,36.3,34.0,32.0,30.2,28.0,91,79,64,0.00,40.00,26,11,0,0.00
2013-2-26,39.0,37.1,36.0,33.0,30.1,28.0,87,76,69,0.00,40.00,28,18,0,0.01
2013-2-27,37.0,35.4,34.0,33.0,30.7,26.0,93,83,73,0.00,40.00,22,12,0,0.05
2013-2-28,37.0,34.4,33.0,33.0,30.9,28.0,96,87,75,0.00,40.00,7,3,0,0.02